RYR998W LPPR-LIEE

Flight info

Callsign RYR998W
Flight time 2h 10m
Altitude 38000
Route BELDU DCT CANAR DCT ADORO DCT FITSE DCT DGO N725 OSPOK/N0429F370 DCT NOLVI DCT ORKUM/N0430F380 DCT ELSAG DCT ALG DCT USEPI DCT SODIO DCT TEKSA DCT RAMEN DCT KOVAS
Aircraft B738/M-SDE2E3FGHIRWXY/LB1

Departure

Time 2026-05-06 15:19
Airport Francisco de Sá Carneiro Airport (LPPR)

Arrival

Time 2026-05-06 17:29
Airport Cagliari Elmas Airport (LIEE)
Time Latitude Longitude Altitude Speed Heading
2026-05-06 14:37 41.23792 -8.67367 243 ft 0 kts 49°
2026-05-06 14:44 41.23792 -8.67368 243 ft 0 kts 49°
2026-05-06 15:12 41.23789 -8.67371 243 ft 3 kts 49°
2026-05-06 15:12 41.23774 -8.67399 241 ft 4 kts 68°
2026-05-06 15:12 41.23769 -8.67432 239 ft 4 kts 102°
2026-05-06 15:12 41.23781 -8.67461 238 ft 4 kts 151°
2026-05-06 15:13 41.23792 -8.67467 238 ft 2 kts 169°
2026-05-06 15:15 41.23787 -8.67466 238 ft 3 kts 169°
2026-05-06 15:15 41.23748 -8.67456 237 ft 9 kts 169°
2026-05-06 15:16 41.23674 -8.67439 237 ft 10 kts 181°
2026-05-06 15:16 41.23628 -8.67506 237 ft 12 kts 254°
2026-05-06 15:16 41.23612 -8.67612 232 ft 9 kts 259°
2026-05-06 15:16 41.23605 -8.67660 232 ft 0 kts 259°
2026-05-06 15:18 41.23604 -8.67670 232 ft 5 kts 259°
2026-05-06 15:18 41.23592 -8.67753 232 ft 10 kts 259°
2026-05-06 15:18 41.23624 -8.67815 231 ft 10 kts 345°
2026-05-06 15:18 41.23736 -8.67845 226 ft 35 kts 348°
2026-05-06 15:19 41.24214 -8.67969 217 ft 103 kts 348°
2026-05-06 15:19 41.25107 -8.68202 265 ft 148 kts 347°
2026-05-06 15:19 41.26116 -8.68453 908 ft 151 kts 349°
2026-05-06 15:19 41.27177 -8.68699 1496 ft 165 kts 347°
2026-05-06 15:20 41.28380 -8.69040 1877 ft 189 kts 344°
2026-05-06 15:20 41.29725 -8.69400 2346 ft 202 kts 354°
2026-05-06 15:20 41.31109 -8.68871 2798 ft 222 kts 35°
2026-05-06 15:20 41.32011 -8.67184 3478 ft 228 kts 68°
2026-05-06 15:21 41.32383 -8.65029 3796 ft 256 kts 83°
2026-05-06 15:21 41.32552 -8.62610 4425 ft 264 kts 84°
2026-05-06 15:21 41.32715 -8.60180 5268 ft 265 kts 84°
2026-05-06 15:21 41.32883 -8.57720 6009 ft 268 kts 84°
2026-05-06 15:22 41.33059 -8.55238 6780 ft 270 kts 84°
2026-05-06 15:22 41.33237 -8.52737 7546 ft 273 kts 85°
2026-05-06 15:22 41.33422 -8.50206 8325 ft 276 kts 84°
2026-05-06 15:22 41.33611 -8.47659 9117 ft 278 kts 85°
2026-05-06 15:23 41.33803 -8.45096 9927 ft 280 kts 85°
2026-05-06 15:23 41.34000 -8.42461 10375 ft 295 kts 84°
2026-05-06 15:23 41.34211 -8.39641 10601 ft 316 kts 84°
2026-05-06 15:23 41.34433 -8.36678 11122 ft 326 kts 84°
2026-05-06 15:24 41.34662 -8.33637 11765 ft 333 kts 84°
2026-05-06 15:24 41.34893 -8.30558 12503 ft 336 kts 84°
2026-05-06 15:24 41.35127 -8.27447 13228 ft 342 kts 84°
2026-05-06 15:24 41.35364 -8.24282 13962 ft 346 kts 84°
2026-05-06 15:25 41.35602 -8.21070 14612 ft 352 kts 84°
2026-05-06 15:25 41.35844 -8.17806 15295 ft 356 kts 84°
2026-05-06 15:25 41.36087 -8.14513 16059 ft 359 kts 84°
2026-05-06 15:25 41.36331 -8.11196 16814 ft 362 kts 85°
2026-05-06 15:26 41.36577 -8.07831 17509 ft 367 kts 85°
2026-05-06 15:26 41.36825 -8.04437 18211 ft 371 kts 84°
2026-05-06 15:26 41.37076 -8.00996 18799 ft 376 kts 85°
2026-05-06 15:26 41.37327 -7.97516 19420 ft 379 kts 85°
2026-05-06 15:27 41.37580 -7.94009 20034 ft 383 kts 85°
2026-05-06 15:27 41.37834 -7.90462 20656 ft 387 kts 85°
2026-05-06 15:27 41.38090 -7.86881 21275 ft 391 kts 85°
2026-05-06 15:27 41.38344 -7.83311 21888 ft 395 kts 85°
2026-05-06 15:28 41.38606 -7.79607 22494 ft 399 kts 85°
2026-05-06 15:28 41.38863 -7.75961 23088 ft 403 kts 85°
2026-05-06 15:28 41.39125 -7.72234 23629 ft 407 kts 85°
2026-05-06 15:28 41.39389 -7.68459 24115 ft 410 kts 85°
2026-05-06 15:29 41.39652 -7.64667 24620 ft 413 kts 85°
2026-05-06 15:29 41.39917 -7.60832 25118 ft 416 kts 85°
2026-05-06 15:29 41.40182 -7.56973 25579 ft 420 kts 85°
2026-05-06 15:29 41.40448 -7.53085 26035 ft 423 kts 85°
2026-05-06 15:30 41.40715 -7.49163 26490 ft 426 kts 85°
2026-05-06 15:30 41.40982 -7.45216 26936 ft 429 kts 85°
2026-05-06 15:30 41.41251 -7.41237 27377 ft 432 kts 86°
2026-05-06 15:30 41.41519 -7.37237 27805 ft 436 kts 86°
2026-05-06 15:31 41.41789 -7.33204 28237 ft 438 kts 86°
2026-05-06 15:31 41.42058 -7.29144 28664 ft 441 kts 86°
2026-05-06 15:31 41.42328 -7.25062 29068 ft 444 kts 86°
2026-05-06 15:32 41.42865 -7.16857 29796 ft 451 kts 86°
2026-05-06 15:32 41.43136 -7.12677 30127 ft 454 kts 86°
2026-05-06 15:32 41.43407 -7.08472 30457 ft 457 kts 86°
2026-05-06 15:32 41.43679 -7.04247 30783 ft 459 kts 86°
2026-05-06 15:33 41.43951 -6.99992 31085 ft 462 kts 86°
2026-05-06 15:33 41.44222 -6.95718 31391 ft 464 kts 86°
2026-05-06 15:33 41.44492 -6.91425 31672 ft 466 kts 86°
2026-05-06 15:33 41.44763 -6.87111 31941 ft 469 kts 86°
2026-05-06 15:34 41.45306 -6.78382 31922 ft 472 kts 86°
2026-05-06 15:34 41.45837 -6.69650 32108 ft 474 kts 86°
2026-05-06 15:35 41.46105 -6.65280 32586 ft 471 kts 86°
2026-05-06 15:35 41.46369 -6.60944 33105 ft 468 kts 86°
2026-05-06 15:35 41.46628 -6.56631 33583 ft 465 kts 86°
2026-05-06 15:35 41.46885 -6.52334 33981 ft 464 kts 86°
2026-05-06 15:36 41.47055 -6.49491 34168 ft 465 kts 86°
2026-05-06 15:36 41.47308 -6.45197 34400 ft 466 kts 86°
2026-05-06 15:36 41.47560 -6.40878 34650 ft 467 kts 86°
2026-05-06 15:36 41.47894 -6.35156 35043 ft 467 kts 86°
2026-05-06 15:37 41.48159 -6.30841 35330 ft 467 kts 83°
2026-05-06 15:37 41.48753 -6.26585 35564 ft 468 kts 74°
2026-05-06 15:37 41.49440 -6.23797 35729 ft 468 kts 68°
2026-05-06 15:37 41.50663 -6.19775 36022 ft 468 kts 67°
2026-05-06 15:38 41.51920 -6.15773 36320 ft 468 kts 66°
2026-05-06 15:38 41.53180 -6.11764 36577 ft 468 kts 66°
2026-05-06 15:38 41.54427 -6.07754 36818 ft 469 kts 67°
2026-05-06 15:38 41.55664 -6.03724 37060 ft 469 kts 67°
2026-05-06 15:39 41.56890 -5.99683 37304 ft 470 kts 67°
2026-05-06 15:39 41.58094 -5.95689 37559 ft 470 kts 67°
2026-05-06 15:39 41.59313 -5.91633 37830 ft 470 kts 67°
2026-05-06 15:39 41.60529 -5.87573 37946 ft 472 kts 67°
2026-05-06 15:40 41.62979 -5.79388 37955 ft 475 kts 67°
2026-05-06 15:40 41.65414 -5.71232 37935 ft 469 kts 67°
2026-05-06 15:41 41.67819 -5.63152 37953 ft 467 kts 67°
2026-05-06 15:41 41.70214 -5.55082 37945 ft 466 kts 67°
2026-05-06 15:42 41.72601 -5.47018 37958 ft 466 kts 68°
2026-05-06 15:42 41.74984 -5.38939 37954 ft 467 kts 68°
2026-05-06 15:43 41.77363 -5.30850 37960 ft 468 kts 68°
2026-05-06 15:43 41.79730 -5.22774 37967 ft 469 kts 68°
2026-05-06 15:44 41.82110 -5.14631 37961 ft 470 kts 68°
2026-05-06 15:44 41.84493 -5.06450 37970 ft 471 kts 68°
2026-05-06 15:45 41.86874 -4.98248 37968 ft 472 kts 68°
2026-05-06 15:45 41.89255 -4.90021 37966 ft 473 kts 68°
2026-05-06 15:46 41.91632 -4.81781 37966 ft 473 kts 68°
2026-05-06 15:46 41.94003 -4.73537 37965 ft 473 kts 68°
2026-05-06 15:47 41.96368 -4.65283 37963 ft 473 kts 68°
2026-05-06 15:47 41.98726 -4.57033 37961 ft 473 kts 68°
2026-05-06 15:48 42.01076 -4.48784 37968 ft 472 kts 68°
2026-05-06 15:48 42.03419 -4.40526 37959 ft 472 kts 68°
2026-05-06 15:49 42.05738 -4.32331 37963 ft 471 kts 68°
2026-05-06 15:49 42.08060 -4.24098 37963 ft 470 kts 68°
2026-05-06 15:50 42.10376 -4.15854 37965 ft 470 kts 68°
2026-05-06 15:50 42.12687 -4.07613 37985 ft 470 kts 68°
2026-05-06 15:51 42.14989 -3.99368 37973 ft 471 kts 68°
2026-05-06 15:51 42.17289 -3.91104 37964 ft 471 kts 68°
2026-05-06 15:52 42.19583 -3.82846 37964 ft 470 kts 68°
2026-05-06 15:52 42.21864 -3.74590 37965 ft 470 kts 68°
2026-05-06 15:53 42.24141 -3.66324 37964 ft 470 kts 68°
2026-05-06 15:53 42.26402 -3.58098 37965 ft 471 kts 69°
2026-05-06 15:54 42.28671 -3.49804 37967 ft 471 kts 69°
2026-05-06 15:54 42.30937 -3.41494 37969 ft 471 kts 69°
2026-05-06 15:55 42.33201 -3.33168 37976 ft 472 kts 69°
2026-05-06 15:55 42.35456 -3.24843 37974 ft 472 kts 69°
2026-05-06 15:56 42.37707 -3.16510 38000 ft 472 kts 69°
2026-05-06 15:56 42.39954 -3.08165 37988 ft 473 kts 69°
2026-05-06 15:57 42.42199 -2.99799 37996 ft 472 kts 69°
2026-05-06 15:57 42.44245 -2.91373 37975 ft 472 kts 80°
2026-05-06 15:58 42.44547 -2.86950 38006 ft 471 kts 91°
2026-05-06 15:58 42.44277 -2.82538 37990 ft 470 kts 102°
2026-05-06 15:58 42.42573 -2.74026 37987 ft 469 kts 108°
2026-05-06 15:59 42.40748 -2.65623 37986 ft 468 kts 107°
2026-05-06 15:59 42.38955 -2.57144 37964 ft 468 kts 107°
2026-05-06 16:00 42.37193 -2.48671 37964 ft 468 kts 107°
2026-05-06 16:00 42.35430 -2.40192 37972 ft 468 kts 107°
2026-05-06 16:01 42.33656 -2.31707 37972 ft 469 kts 107°
2026-05-06 16:01 42.31870 -2.23208 37977 ft 470 kts 107°
2026-05-06 16:02 42.30075 -2.14699 37976 ft 471 kts 107°
2026-05-06 16:02 42.28271 -2.06181 37980 ft 473 kts 107°
2026-05-06 16:03 42.26456 -1.97649 37986 ft 473 kts 108°
2026-05-06 16:03 42.24639 -1.89164 37968 ft 474 kts 108°
2026-05-06 16:04 42.22792 -1.80568 37974 ft 473 kts 108°
2026-05-06 16:04 42.20968 -1.72106 37977 ft 473 kts 108°
2026-05-06 16:05 42.19122 -1.63578 37969 ft 473 kts 108°
2026-05-06 16:05 42.17275 -1.55078 37960 ft 472 kts 108°
2026-05-06 16:06 42.15423 -1.46585 37960 ft 472 kts 109°
2026-05-06 16:06 42.13565 -1.38102 37961 ft 472 kts 109°
2026-05-06 16:07 42.11708 -1.29645 37966 ft 471 kts 109°
2026-05-06 16:07 42.09843 -1.21197 37956 ft 471 kts 109°
2026-05-06 16:08 42.07970 -1.12741 37952 ft 471 kts 109°
2026-05-06 16:08 42.06092 -1.04286 37953 ft 471 kts 109°
2026-05-06 16:09 42.04206 -0.95828 37948 ft 472 kts 109°
2026-05-06 16:09 42.02318 -0.87386 37943 ft 472 kts 109°
2026-05-06 16:10 42.00419 -0.78939 37942 ft 472 kts 109°
2026-05-06 16:10 41.98504 -0.70488 37926 ft 472 kts 110°
2026-05-06 16:11 41.96595 -0.62091 37928 ft 473 kts 110°
2026-05-06 16:11 41.94668 -0.53641 37930 ft 473 kts 110°
2026-05-06 16:12 41.92733 -0.45182 37929 ft 474 kts 110°
2026-05-06 16:12 41.90793 -0.36728 37928 ft 474 kts 110°
2026-05-06 16:13 41.88846 -0.28275 37933 ft 475 kts 110°
2026-05-06 16:13 41.86887 -0.19802 37922 ft 475 kts 110°
2026-05-06 16:14 41.84922 -0.11321 37918 ft 476 kts 110°
2026-05-06 16:14 41.82951 -0.02844 37915 ft 476 kts 110°
2026-05-06 16:15 41.80985 0.05574 37895 ft 476 kts 111°
2026-05-06 16:15 41.79005 0.14028 37900 ft 476 kts 111°
2026-05-06 16:16 41.77013 0.22484 37886 ft 476 kts 111°
2026-05-06 16:16 41.75017 0.30926 37901 ft 475 kts 111°
2026-05-06 16:17 41.73014 0.39359 37911 ft 475 kts 111°
2026-05-06 16:17 41.71005 0.47786 37917 ft 476 kts 111°
2026-05-06 16:18 41.68986 0.56231 37917 ft 477 kts 111°
2026-05-06 16:18 41.66954 0.64702 37911 ft 478 kts 111°
2026-05-06 16:19 41.64873 0.73122 37905 ft 477 kts 112°
2026-05-06 16:19 41.62669 0.81499 37894 ft 478 kts 113°
2026-05-06 16:20 41.60453 0.89892 37897 ft 479 kts 113°
2026-05-06 16:20 41.58250 0.98289 37890 ft 480 kts 113°
2026-05-06 16:21 41.56042 1.06697 37884 ft 480 kts 113°
2026-05-06 16:21 41.53849 1.15061 37865 ft 481 kts 112°
2026-05-06 16:22 41.51861 1.23587 37887 ft 482 kts 111°
2026-05-06 16:22 41.49923 1.32211 37891 ft 482 kts 111°
2026-05-06 16:23 41.47960 1.40754 37894 ft 481 kts 111°
2026-05-06 16:23 41.45974 1.49266 37891 ft 481 kts 111°
2026-05-06 16:24 41.43996 1.57707 37903 ft 480 kts 111°
2026-05-06 16:24 41.42005 1.66189 37901 ft 479 kts 111°
2026-05-06 16:25 41.39941 1.74614 37911 ft 477 kts 113°
2026-05-06 16:25 41.37804 1.82965 37918 ft 476 kts 113°
2026-05-06 16:26 41.36018 1.89958 37928 ft 476 kts 113°
2026-05-06 16:26 41.33899 1.98296 37935 ft 475 kts 113°
2026-05-06 16:27 41.31790 2.06573 37932 ft 474 kts 114°
2026-05-06 16:27 41.29876 2.14972 37944 ft 477 kts 108°
2026-05-06 16:28 41.28482 2.23617 37936 ft 479 kts 106°
2026-05-06 16:28 41.27136 2.32284 37922 ft 478 kts 107°
2026-05-06 16:29 41.25736 2.40923 37933 ft 478 kts 107°
2026-05-06 16:29 41.24301 2.49545 37926 ft 478 kts 107°
2026-05-06 16:30 41.23093 2.56724 37930 ft 479 kts 107°
2026-05-06 16:30 41.21387 2.66824 37928 ft 479 kts 107°
2026-05-06 16:31 41.19924 2.75463 37922 ft 480 kts 107°
2026-05-06 16:31 41.18462 2.84042 37923 ft 480 kts 108°
2026-05-06 16:32 41.16983 2.92692 37927 ft 481 kts 108°
2026-05-06 16:32 41.15497 3.01342 37927 ft 481 kts 108°
2026-05-06 16:33 41.14003 3.09997 37928 ft 481 kts 108°
2026-05-06 16:34 41.11748 3.22980 37933 ft 481 kts 108°
2026-05-06 16:34 41.10237 3.31624 37930 ft 481 kts 108°
2026-05-06 16:35 41.08720 3.40261 37931 ft 481 kts 108°
2026-05-06 16:35 41.07200 3.48892 37937 ft 480 kts 108°
2026-05-06 16:36 41.05674 3.57499 37938 ft 479 kts 108°
2026-05-06 16:36 41.04153 3.66032 37932 ft 479 kts 108°
2026-05-06 16:37 41.02618 3.74617 37933 ft 479 kts 108°
2026-05-06 16:37 41.01080 3.83181 37933 ft 478 kts 108°
2026-05-06 16:38 40.99531 3.91738 37933 ft 478 kts 108°
2026-05-06 16:38 40.97974 4.00297 37947 ft 478 kts 108°
2026-05-06 16:39 40.96414 4.08845 37949 ft 478 kts 108°
2026-05-06 16:39 40.94844 4.17402 37947 ft 479 kts 108°
2026-05-06 16:40 40.93267 4.25974 37938 ft 479 kts 109°
2026-05-06 16:40 40.91696 4.34472 37942 ft 479 kts 109°
2026-05-06 16:41 40.90106 4.43031 37945 ft 480 kts 109°
2026-05-06 16:41 40.88507 4.51613 37968 ft 483 kts 109°
2026-05-06 16:41 40.87700 4.55940 38104 ft 486 kts 109°
2026-05-06 16:42 40.86892 4.60269 38371 ft 485 kts 109°
2026-05-06 16:42 40.86084 4.64591 38690 ft 483 kts 109°
2026-05-06 16:42 40.85376 4.68925 38911 ft 484 kts 103°
2026-05-06 16:43 40.84640 4.77846 38946 ft 492 kts 98°
2026-05-06 16:43 40.84178 4.86839 38935 ft 489 kts 97°
2026-05-06 16:44 40.83701 4.95751 38934 ft 485 kts 98°
2026-05-06 16:44 40.83171 5.04610 38941 ft 482 kts 98°
2026-05-06 16:45 40.82616 5.13429 38950 ft 481 kts 98°
2026-05-06 16:45 40.82057 5.22178 38950 ft 482 kts 99°
2026-05-06 16:46 40.81489 5.31011 38953 ft 484 kts 98°
2026-05-06 16:46 40.80915 5.39886 38959 ft 485 kts 99°
2026-05-06 16:47 40.80332 5.48779 38960 ft 488 kts 99°
2026-05-06 16:47 40.79737 5.57727 38946 ft 490 kts 99°
2026-05-06 16:48 40.79130 5.66713 38947 ft 492 kts 99°
2026-05-06 16:48 40.78522 5.75663 38932 ft 493 kts 99°
2026-05-06 16:49 40.77902 5.84684 38944 ft 493 kts 99°
2026-05-06 16:49 40.77277 5.93688 38944 ft 493 kts 99°
2026-05-06 16:50 40.76641 6.02682 38940 ft 491 kts 99°
2026-05-06 16:50 40.75990 6.11654 38929 ft 490 kts 99°
2026-05-06 16:51 40.75341 6.20578 38934 ft 488 kts 99°
2026-05-06 16:51 40.74688 6.29472 38938 ft 486 kts 99°
2026-05-06 16:52 40.74030 6.38334 38943 ft 485 kts 99°
2026-05-06 16:52 40.73366 6.47172 38912 ft 484 kts 99°
2026-05-06 16:53 40.72700 6.55969 38933 ft 482 kts 99°
2026-05-06 16:53 40.72027 6.64748 38931 ft 481 kts 99°
2026-05-06 16:54 40.71348 6.73505 38935 ft 480 kts 99°
2026-05-06 16:54 40.70664 6.82245 38939 ft 479 kts 99°
2026-05-06 16:55 40.69980 6.90930 38928 ft 480 kts 99°
2026-05-06 16:55 40.69283 6.99666 38935 ft 480 kts 99°
2026-05-06 16:56 40.68578 7.08422 38946 ft 481 kts 99°
2026-05-06 16:56 40.67865 7.17190 38941 ft 482 kts 100°
2026-05-06 16:57 40.67145 7.25977 38936 ft 483 kts 100°
2026-05-06 16:57 40.66418 7.34772 38934 ft 483 kts 100°
2026-05-06 16:58 40.65687 7.43530 38944 ft 484 kts 100°
2026-05-06 16:58 40.64940 7.52385 38941 ft 484 kts 100°
2026-05-06 16:59 40.64186 7.61214 38916 ft 485 kts 100°
2026-05-06 16:59 40.63433 7.69968 38927 ft 484 kts 100°
2026-05-06 17:00 40.62669 7.78776 38934 ft 484 kts 100°
2026-05-06 17:00 40.61900 7.87610 38546 ft 490 kts 100°
2026-05-06 17:00 40.61508 7.92068 37979 ft 489 kts 100°
2026-05-06 17:01 40.61117 7.96501 37452 ft 486 kts 100°
2026-05-06 17:01 40.60879 8.00934 36885 ft 487 kts 92°
2026-05-06 17:01 40.61124 8.05386 36351 ft 488 kts 85°
2026-05-06 17:01 40.61566 8.09801 35807 ft 487 kts 85°
2026-05-06 17:02 40.61985 8.14223 35207 ft 487 kts 86°
2026-05-06 17:02 40.62019 8.18660 34569 ft 481 kts 104°
2026-05-06 17:02 40.61047 8.22737 34010 ft 468 kts 122°
2026-05-06 17:02 40.59372 8.26351 33299 ft 460 kts 133°
2026-05-06 17:03 40.57285 8.29468 32729 ft 450 kts 142°
2026-05-06 17:03 40.54957 8.32145 32282 ft 439 kts 149°
2026-05-06 17:03 40.52429 8.34288 31794 ft 427 kts 158°
2026-05-06 17:03 40.49809 8.36062 31358 ft 421 kts 159°
2026-05-06 17:04 40.47217 8.37802 30919 ft 417 kts 159°
2026-05-06 17:04 40.44657 8.39561 30488 ft 414 kts 157°
2026-05-06 17:04 40.42196 8.41539 30143 ft 412 kts 153°
2026-05-06 17:04 40.39802 8.43597 29657 ft 410 kts 153°
2026-05-06 17:05 40.37440 8.45645 29206 ft 405 kts 153°
2026-05-06 17:05 40.35098 8.47666 28745 ft 400 kts 153°
2026-05-06 17:05 40.32780 8.49648 28301 ft 396 kts 153°
2026-05-06 17:05 40.30481 8.51602 27847 ft 393 kts 153°
2026-05-06 17:06 40.28188 8.53546 27393 ft 390 kts 153°
2026-05-06 17:06 40.25920 8.55467 26970 ft 388 kts 154°
2026-05-06 17:06 40.23655 8.57384 26529 ft 386 kts 153°
2026-05-06 17:06 40.21409 8.59285 26109 ft 384 kts 153°
2026-05-06 17:07 40.19171 8.61177 25678 ft 382 kts 153°
2026-05-06 17:07 40.16941 8.63061 25243 ft 381 kts 153°
2026-05-06 17:07 40.14718 8.64938 24805 ft 379 kts 153°
2026-05-06 17:07 40.12509 8.66801 24394 ft 379 kts 153°
2026-05-06 17:08 40.10293 8.68670 23964 ft 378 kts 153°
2026-05-06 17:08 40.08086 8.70530 23524 ft 378 kts 153°
2026-05-06 17:08 40.05880 8.72383 23024 ft 376 kts 153°
2026-05-06 17:08 40.03688 8.74229 22573 ft 374 kts 152°
2026-05-06 17:09 40.01505 8.76067 22143 ft 373 kts 152°
2026-05-06 17:09 39.99335 8.77889 21720 ft 370 kts 152°
2026-05-06 17:09 39.97176 8.79705 21304 ft 368 kts 152°
2026-05-06 17:09 39.95032 8.81498 20884 ft 364 kts 152°
2026-05-06 17:10 39.92937 8.83253 20479 ft 362 kts 152°
2026-05-06 17:10 39.90802 8.85039 20083 ft 358 kts 151°
2026-05-06 17:10 39.88734 8.86764 19680 ft 357 kts 151°
2026-05-06 17:10 39.86658 8.88502 19281 ft 356 kts 150°
2026-05-06 17:11 39.84579 8.90242 18882 ft 355 kts 150°
2026-05-06 17:11 39.82510 8.91971 18498 ft 353 kts 150°
2026-05-06 17:11 39.80436 8.93699 18068 ft 352 kts 150°
2026-05-06 17:11 39.78386 8.95411 17640 ft 349 kts 149°
2026-05-06 17:12 39.76354 8.97104 17241 ft 346 kts 150°
2026-05-06 17:12 39.74336 8.98781 16828 ft 343 kts 149°
2026-05-06 17:12 39.72328 9.00450 16397 ft 342 kts 149°
2026-05-06 17:12 39.70334 9.02109 16008 ft 340 kts 149°
2026-05-06 17:13 39.68348 9.03759 15656 ft 338 kts 149°
2026-05-06 17:13 39.66373 9.05399 15232 ft 337 kts 150°
2026-05-06 17:13 39.64391 9.07043 14828 ft 337 kts 149°
2026-05-06 17:13 39.62420 9.08675 14449 ft 336 kts 149°
2026-05-06 17:14 39.60450 9.10303 14060 ft 335 kts 149°
2026-05-06 17:14 39.58492 9.11922 13670 ft 333 kts 149°
2026-05-06 17:14 39.56542 9.13535 13255 ft 332 kts 149°
2026-05-06 17:14 39.54621 9.15126 12843 ft 331 kts 149°
2026-05-06 17:15 39.52670 9.16738 12434 ft 328 kts 149°
2026-05-06 17:15 39.50778 9.18299 12062 ft 324 kts 149°
2026-05-06 17:15 39.48889 9.19857 11667 ft 321 kts 149°
2026-05-06 17:15 39.47007 9.21408 11300 ft 319 kts 149°
2026-05-06 17:16 39.45145 9.22942 10919 ft 317 kts 149°
2026-05-06 17:16 39.43285 9.24475 10559 ft 315 kts 149°
2026-05-06 17:16 39.41451 9.25984 10270 ft 310 kts 149°
2026-05-06 17:16 39.39655 9.27461 10136 ft 301 kts 149°
2026-05-06 17:17 39.37918 9.28892 9997 ft 292 kts 149°
2026-05-06 17:17 39.36219 9.30288 9724 ft 288 kts 149°
2026-05-06 17:17 39.35099 9.31207 9507 ft 287 kts 149°
2026-05-06 17:17 39.32866 9.33039 9089 ft 285 kts 149°
2026-05-06 17:18 39.31760 9.33946 8878 ft 283 kts 149°
2026-05-06 17:18 39.30096 9.35310 8544 ft 282 kts 149°
2026-05-06 17:18 39.28444 9.36666 8241 ft 281 kts 149°
2026-05-06 17:18 39.26795 9.38015 7923 ft 280 kts 149°
2026-05-06 17:19 39.25147 9.39367 7617 ft 280 kts 149°
2026-05-06 17:19 39.23504 9.40711 7294 ft 280 kts 149°
2026-05-06 17:19 39.21863 9.42048 6982 ft 279 kts 149°
2026-05-06 17:19 39.20235 9.43378 6820 ft 274 kts 149°
2026-05-06 17:20 39.18638 9.44684 6682 ft 269 kts 149°
2026-05-06 17:20 39.17078 9.45957 6548 ft 262 kts 149°
2026-05-06 17:20 39.15566 9.47190 6439 ft 253 kts 149°
2026-05-06 17:20 39.14072 9.48340 6328 ft 245 kts 159°
2026-05-06 17:21 39.12443 9.48627 6227 ft 234 kts 189°
2026-05-06 17:21 39.10944 9.47897 6062 ft 230 kts 213°
2026-05-06 17:21 39.09789 9.46497 5884 ft 228 kts 234°
2026-05-06 17:21 39.09081 9.44685 5707 ft 225 kts 245°
2026-05-06 17:22 39.08473 9.42835 5516 ft 223 kts 245°
2026-05-06 17:22 39.07883 9.41034 5329 ft 219 kts 245°
2026-05-06 17:22 39.07292 9.39240 5156 ft 216 kts 245°
2026-05-06 17:22 39.06706 9.37468 4972 ft 214 kts 245°
2026-05-06 17:23 39.06122 9.35709 4806 ft 213 kts 245°
2026-05-06 17:23 39.05539 9.33959 4628 ft 213 kts 245°
2026-05-06 17:23 39.04977 9.32197 4446 ft 213 kts 252°
2026-05-06 17:23 39.04983 9.30301 4256 ft 216 kts 287°
2026-05-06 17:24 39.05665 9.28623 4114 ft 211 kts 309°
2026-05-06 17:24 39.06681 9.27308 3941 ft 204 kts 311°
2026-05-06 17:24 39.07630 9.25990 3782 ft 198 kts 312°
2026-05-06 17:24 39.08602 9.24751 3615 ft 196 kts 315°
2026-05-06 17:25 39.09602 9.23550 3517 ft 197 kts 316°
2026-05-06 17:25 39.10615 9.22360 3418 ft 194 kts 316°
2026-05-06 17:25 39.11587 9.21227 3293 ft 186 kts 316°
2026-05-06 17:25 39.12539 9.20116 3062 ft 183 kts 316°
2026-05-06 17:26 39.13479 9.19019 2824 ft 181 kts 316°
2026-05-06 17:26 39.14411 9.17933 2585 ft 180 kts 317°
2026-05-06 17:26 39.15334 9.16857 2347 ft 179 kts 317°
2026-05-06 17:26 39.16257 9.15782 2108 ft 178 kts 317°
2026-05-06 17:27 39.17173 9.14714 1871 ft 177 kts 318°
2026-05-06 17:27 39.18084 9.13651 1639 ft 176 kts 318°
2026-05-06 17:27 39.18988 9.12598 1402 ft 174 kts 318°
2026-05-06 17:27 39.19881 9.11557 1159 ft 170 kts 319°
2026-05-06 17:28 39.20733 9.10563 964 ft 159 kts 319°
2026-05-06 17:28 39.21515 9.09651 775 ft 146 kts 319°
2026-05-06 17:28 39.22252 9.08770 586 ft 141 kts 317°
2026-05-06 17:28 39.22971 9.07949 391 ft 135 kts 319°
2026-05-06 17:29 39.23648 9.07161 209 ft 129 kts 317°
2026-05-06 17:29 39.24308 9.06400 43 ft 129 kts 318°
2026-05-06 17:29 39.24899 9.05718 16 ft 90 kts 318°
2026-05-06 17:29 39.25210 9.05358 14 ft 30 kts 318°
2026-05-06 17:30 39.25286 9.05297 13 ft 9 kts 11°
2026-05-06 17:30 39.25333 9.05351 14 ft 9 kts 49°
2026-05-06 17:30 39.25375 9.05411 15 ft 9 kts 48°
2026-05-06 17:30 39.25401 9.05480 14 ft 9 kts 85°
2026-05-06 17:31 39.25392 9.05557 16 ft 8 kts 101°
2026-05-06 17:31 39.25368 9.05624 15 ft 8 kts 130°
2026-05-06 17:31 39.25345 9.05684 14 ft 8 kts 83°
2026-05-06 17:31 39.25373 9.05744 14 ft 8 kts 51°
2026-05-06 17:32 39.25402 9.05790 14 ft 4 kts 51°
2026-05-06 17:32 39.25412 9.05806 14 ft 2 kts 52°
2026-05-06 17:32 39.25420 9.05819 14 ft 2 kts 52°
2026-05-06 17:32 39.25427 9.05831 15 ft 3 kts 52°
2026-05-06 17:33 39.25439 9.05868 15 ft 6 kts 93°
2026-05-06 17:33 39.25418 9.05899 14 ft 1 kts 142°
2026-05-06 17:33 39.25413 9.05904 15 ft 1 kts 142°
2026-05-06 17:33 39.25406 9.05911 16 ft 1 kts 142°
2026-05-06 17:34 39.25403 9.05914 14 ft 0 kts 142°